カタログに戻る

SL-12 DEB

運用中LEO
NORAD 18765·DEBRIS·🇷🇺 Russia

打ち上げ May 30, 1985 から Baikonur Cosmodrome

Loading…

次のパス (今後24時間)

TLE

最新Source: Space-Track

元期: Sep 14, 2026, 17:16 UTC

1 18765U 85042H   26257.71979613  .00002044  00000-0  42432-3 0  9999
2 18765  66.5731 154.2693 0007523 294.2412  65.7915 14.62251677 28361

AllMySatでSL-12 DEBをリアルタイム追跡

Download on the App Store